| time (UTC) | temp C | wind direction | speed KPH | gust KPH | rain 1hr cm | rain 24hr cm | rain mn cm | humidity % | barometer mb |
| 20260506012034 | 16 | 178 | 0.0 | 14.5 | 0.00 | 0.00 | 0.00 | 64 | 1010.9 |
| 20260506011926 | 16 | 180 | 0.0 | 14.5 | 0.00 | 0.00 | 0.00 | 64 | 1010.9 |
| 20260506010034 | 16 | 175 | 0.0 | 22.5 | 0.00 | 0.00 | 0.00 | 65 | 1010.8 |
| 20260506004034 | 16 | 174 | 0.0 | 22.5 | 0.00 | 0.00 | 0.00 | 65 | 1010.7 |
| 20260506002034 | 16 | 207 | 0.0 | 22.5 | 0.00 | 0.00 | 0.00 | 65 | 1010.1 |
| 20260506001926 | 16 | 207 | 0.0 | 22.5 | 0.00 | 0.00 | 0.00 | 65 | 1010.1 |
| 20260506000034 | 16 | 173 | 0.0 | 32.2 | 0.00 | 0.00 | 0.00 | 65 | 1009.8 |
| 20260505234034 | 17 | 194 | 12.9 | 32.2 | 0.00 | 0.00 | 0.00 | 65 | 1009.6 |
| 20260505232034 | 17 | 201 | 25.7 | 32.2 | 0.00 | 0.00 | 0.00 | 64 | 1009.3 |
| 20260505231926 | 17 | 163 | 8.0 | 32.2 | 0.00 | 0.00 | 0.00 | 64 | 1009.2 |
| 20260505230035 | 18 | 210 | 0.0 | 40.2 | 0.00 | 0.00 | 0.00 | 64 | 1008.7 |
| 20260505224034 | 19 | 173 | 0.0 | 40.2 | 0.00 | 0.00 | 0.00 | 62 | 1008.7 |
| 20260505222034 | 20 | 204 | 8.0 | 40.2 | 0.00 | 0.00 | 0.00 | 60 | 1008.7 |
| 20260505221926 | 20 | 186 | 3.2 | 40.2 | 0.00 | 0.00 | 0.00 | 59 | 1008.7 |
| 20260505220034 | 20 | 176 | 8.0 | 35.4 | 0.00 | 0.00 | 0.00 | 57 | 1008.6 |
| 20260505214035 | 21 | 191 | 9.7 | 35.4 | 0.00 | 0.00 | 0.00 | 55 | 1008.5 |
| 20260505212034 | 21 | 161 | 0.0 | 35.4 | 0.00 | 0.00 | 0.00 | 55 | 1008.4 |
| 20260505211926 | 21 | 204 | 19.3 | 35.4 | 0.00 | 0.00 | 0.00 | 55 | 1008.4 |
| 20260505210036 | 21 | 185 | 8.0 | 41.8 | 0.00 | 0.00 | 0.00 | 55 | 1008.3 |
| 20260505204036 | 22 | 187 | 1.6 | 41.8 | 0.00 | 0.00 | 0.00 | 54 | 1008.3 |
| 20260505202036 | 22 | 199 | 16.1 | 41.8 | 0.00 | 0.00 | 0.00 | 53 | 1008.2 |
| 20260505201926 | 22 | 185 | 1.6 | 41.8 | 0.00 | 0.00 | 0.00 | 53 | 1008.3 |
| 20260505200034 | 22 | 202 | 3.2 | 29.0 | 0.00 | 0.00 | 0.00 | 54 | 1008.1 |
| 20260505194036 | 23 | 195 | 8.0 | 29.0 | 0.00 | 0.00 | 0.00 | 53 | 1008.1 |
| 20260505192034 | 23 | 188 | 0.0 | 29.0 | 0.00 | 0.00 | 0.00 | 52 | 1008.1 |
| 20260505191926 | 23 | 162 | 6.4 | 29.0 | 0.00 | 0.00 | 0.00 | 52 | 1008.1 |
| 20260505190034 | 24 | 175 | 6.4 | 25.7 | 0.00 | 0.00 | 0.00 | 50 | 1008.2 |
| 20260505184036 | 25 | 170 | 8.0 | 25.7 | 0.00 | 0.00 | 0.00 | 48 | 1008.3 |
| 20260505182035 | 25 | 232 | 1.6 | 25.7 | 0.00 | 0.00 | 0.00 | 48 | 1008.2 |
| 20260505181926 | 25 | 194 | 1.6 | 25.7 | 0.00 | 0.00 | 0.00 | 48 | 1008.2 |
| 20260505180036 | 25 | 230 | 11.3 | 30.6 | 0.00 | 0.00 | 0.00 | 48 | 1008.4 |
| 20260505174036 | 24 | 207 | 0.0 | 30.6 | 0.00 | 0.00 | 0.00 | 48 | 1008.8 |
| 20260505172034 | 23 | 254 | 9.7 | 30.6 | 0.00 | 0.00 | 0.00 | 52 | 1009.0 |
| 20260505171926 | 23 | 173 | 1.6 | 30.6 | 0.00 | 0.00 | 0.00 | 53 | 1009.1 |
| 20260505170036 | 23 | 192 | 3.2 | 19.3 | 0.00 | 0.00 | 0.00 | 53 | 1009.4 |
| 20260505164036 | 23 | 216 | 17.7 | 19.3 | 0.00 | 0.00 | 0.00 | 54 | 1009.5 |
| 20260505162036 | 23 | 187 | 8.0 | 19.3 | 0.00 | 0.00 | 0.00 | 57 | 1009.7 |
| 20260505161926 | 23 | 207 | 0.0 | 19.3 | 0.00 | 0.00 | 0.00 | 56 | 1009.7 |
| 20260505152035 | 21 | 227 | 4.8 | 17.7 | 0.00 | 0.00 | 0.00 | 61 | 1010.3 |
| 20260505151926 | 21 | 223 | 0.0 | 17.7 | 0.00 | 0.00 | 0.00 | 60 | 1010.3 |
| 20260505124034 | 13 | 206 | 0.0 | 16.1 | 0.00 | 0.00 | 0.00 | 37 | 1011.2 |
| 20260505122034 | 12 | 166 | 0.0 | 16.1 | 0.00 | 0.00 | 0.00 | 25 | 1011.3 |
| 20260505121926 | 12 | 166 | 0.0 | 16.1 | 0.00 | 0.00 | 0.00 | 25 | 1011.4 |
| 20260505120035 | 12 | 198 | 0.0 | 0.0 | 0.00 | 0.00 | 0.00 | 10 | 1011.2 |
| 20260505114034 | 11 | 220 | 0.0 | 0.0 | 0.00 | 0.00 | 0.00 | 100 | 1011.1 |
| 20260505112034 | 10 | 219 | 0.0 | 0.0 | 0.00 | 0.00 | 0.00 | 1 | 1011.1 |
| 20260505111926 | 10 | 219 | 0.0 | 0.0 | 0.00 | 0.00 | 0.00 | 1 | 1011.1 |
| 20260505102034 | 8 | 219 | 0.0 | 0.0 | 0.00 | 0.00 | 0.00 | 2 | 1010.7 |
| 20260505101926 | 8 | 219 | 0.0 | 0.0 | 0.00 | 0.00 | 0.00 | 2 | 1010.6 |
| 20260505100034 | 8 | 219 | 0.0 | 0.0 | 0.00 | 0.00 | 0.00 | 2 | 1010.3 |
| 20260505094034 | 7 | 219 | 0.0 | 0.0 | 0.00 | 0.00 | 0.00 | 5 | 1010.3 |
| 20260505092034 | 7 | 219 | 0.0 | 0.0 | 0.00 | 0.00 | 0.00 | 9 | 1010.4 |
| 20260505091926 | 7 | 219 | 0.0 | 0.0 | 0.00 | 0.00 | 0.00 | 10 | 1010.4 |
| 20260505084035 | 7 | 219 | 0.0 | 0.0 | 0.00 | 0.00 | 0.00 | 16 | 1010.7 |
| 20260505082034 | 7 | 219 | 0.0 | 0.0 | 0.00 | 0.00 | 0.00 | 15 | 1010.8 |
| 20260505081926 | 7 | 219 | 0.0 | 0.0 | 0.00 | 0.00 | 0.00 | 15 | 1010.8 |
| 20260505080034 | 7 | 219 | 0.0 | 0.0 | 0.00 | 0.00 | 0.00 | 17 | 1010.8 |
| 20260505074034 | 7 | 219 | 0.0 | 0.0 | 0.00 | 0.00 | 0.00 | 22 | 1010.9 |
| 20260505071926 | 8 | 219 | 0.0 | 0.0 | 0.00 | 0.00 | 0.00 | 22 | 1010.7 |
| 20260505070035 | 8 | 219 | 0.0 | 0.0 | 0.00 | 0.00 | 0.00 | 23 | 1010.9 |
| 20260505062034 | 8 | 219 | 0.0 | 0.0 | 0.00 | 0.00 | 0.00 | 29 | 1011.0 |
| 20260505061926 | 8 | 219 | 0.0 | 0.0 | 0.00 | 0.00 | 0.00 | 29 | 1011.0 |
| 20260505054033 | 9 | 219 | 0.0 | 0.0 | 0.00 | 0.00 | 0.00 | 35 | 1011.3 |
| 20260505052035 | 9 | 219 | 0.0 | 0.0 | 0.00 | 0.00 | 0.00 | 40 | 1011.1 |
| 20260505051926 | 9 | 219 | 0.0 | 0.0 | 0.00 | 0.00 | 0.00 | 40 | 1011.2 |
| 20260505040034 | 11 | 227 | 0.0 | 6.4 | 0.00 | 0.00 | 0.00 | 50 | 1011.4 |
| 20260505034034 | 11 | 192 | 0.0 | 12.9 | 0.00 | 0.00 | 0.00 | 52 | 1011.3 |
| 20260505032035 | 11 | 192 | 0.0 | 12.9 | 0.00 | 0.00 | 0.00 | 56 | 1011.3 |
| 20260505031926 | 11 | 192 | 0.0 | 12.9 | 0.00 | 0.00 | 0.00 | 56 | 1011.3 |
| 20260505024034 | 11 | 190 | 8.0 | 9.7 | 0.00 | 0.00 | 0.00 | 60 | 1011.4 |
| 20260505022034 | 12 | 205 | 0.0 | 9.7 | 0.00 | 0.00 | 0.00 | 62 | 1011.5 |
| 20260505021926 | 12 | 205 | 0.0 | 9.7 | 0.00 | 0.00 | 0.00 | 62 | 1011.5 |
| 20260505020034 | 12 | 180 | 0.0 | 16.1 | 0.00 | 0.00 | 0.00 | 63 | 1011.5 |
| 20260505014034 | 12 | 179 | 0.0 | 16.1 | 0.00 | 0.00 | 0.00 | 65 | 1011.5 |